Showing default

LEMUR 2 CAEL, 58903

Orbit data source: Space-Track

LEMUR 2 CAEL, 58903 is an American payload satellite in SSO that was launched on Wed, 31 Jan 2024 UTC via an ELECTRON launch vehicle from the Rocket Lab Launch Complex (RLLC). Payload-class satellites include a variety of spacecraft equipped with specific instruments for various scientific and technological missions. These include communications satellites like Starlink; space stations such as the ISS; scientific satellites like the Hubble; Earth observation satellites from companies like Planet Labs, Umbra, and HawkEye 360; GPS; miniature CubeSats for education and research; and military/defense satellites.

Loading next visibility...
Identifier
58903, 2024-022E
Orbit
SSO
Country
Flag of USUS
Related business
Manufacturer
Spire/Glasgow
Mission
Operational Commercial Early Warn
Bus & Motor
CUBESAT 3U, Unknown motor
Mass
~25 kg wet, ~25 kg dry
Launch date (UTC)
2024-01-31 (2 years ago)
Launch vehicle
ELECTRON
Launch site
Rocket Lab Launch Complex (RLLC)
Object type
Payload
Rocket body
Debris
Shape & HBR
Box + 2 Pan, 0.5 m
Radar Cross Section
0.146 m², Medium (>0.1 m² and < 1m²)

Expand to show TLE details & history
Last TLE update: 6 hours ago

TLE from 6 hours ago
0 LEMUR 2 CAEL
1 58903U 24022E   26074.54969056  .00015641  00000-0  42091-3 0  9994
2 58903  97.4209 284.3335 0009452  76.4594 283.7703 15.37910361117938
Epoch: 2026-03-15T13:11Z
TLE epoch observation values (Epoch: 2026-03-15T13:11:33.264Z)
Latitude
-0.00004°
Longitude
-86.71001°
Altitude
453.872 km
Speed
7.641 km/s
True Right ascension
18h 57m 20s
True Declination
0° 00' 00"
Sunlit
Object was in daylight at epoch
Visualization orbit readout
Latitude
Unknown
Longitude
Unknown
Altitude
Unknown
Speed
Unknown
Apparent Right ascension
Unknown
Apparent Declination
Unknown
Sunlit
N/A
Visualization observer readout
Local Sidereal Time
23:22:42
Azimuth
Unknown
Elevation
Unknown
Doppler factor
Unknown
Orbital elements
Apogee altitude
455.685 km
Perigee altitude
442.779 km
Semi-major axis
6,827.369 km
Eccentricity
0.00095
Inclination
97.4209°
RAAN
284.3335°
Arg. of periapsis
76.4594°
True anomaly
283.66507°
Mean anomaly
283.7703°
Eccentric anomaly
283.71769°
Mean motion
3.84736 °/min
Orbital period
93.57 mins
BSTAR
0.00042091
Loading maneuver chart data...
Computing Atmospheric mass density...
Loading historical data...
Loading historical data...
Loading historical data...
Loading historical data...
Loading historical data...
Loading historical data...
Loading historical data...

Documentation

Showing up to 5 results
|